Time,TemperatureF,DewpointF,PressureIn,WindDirection,WindDirectionDegrees,WindSpeedMPH,WindSpeedGustMPH,Humidity,HourlyPrecipIn,Conditions,Clouds,dailyrainin,SoftwareType,DateUTC
2013-01-17 00:05:00,71.9,67.1,29.86,NE,34,1.0,3.0,85,0.00,,,0.00,Wunderground v.1.15,2013-01-16 13:05:00,
2013-01-17 00:11:00,71.9,67.1,29.86,NNE,22,1.0,4.0,85,0.00,,,-99.99,WeatherLink 6.0.2,2013-01-16 13:11:00,
2013-01-17 00:17:00,71.8,67.4,29.86,NNE,15,1.0,1.0,86,0.00,,,0.00,Wunderground v.1.15,2013-01-16 13:17:00,
2013-01-17 00:22:00,71.7,67.3,29.86,NE,34,1.0,1.0,86,0.00,,,0.00,Wunderground v.1.15,2013-01-16 13:22:00,
2013-01-17 00:27:00,71.7,67.3,29.86,NNE,19,0.0,1.0,86,0.00,,,0.00,Wunderground v.1.15,2013-01-16 13:27:00,
2013-01-17 00:33:00,71.6,67.2,29.86,NNE,21,0.0,0.0,86,0.00,,,0.00,Wunderground v.1.15,2013-01-16 13:33:00,
2013-01-17 00:39:00,71.5,67.4,29.85,NE,39,2.0,2.0,87,0.00,,,0.00,Wunderground v.1.15,2013-01-16 13:39:00,
2013-01-17 00:45:00,71.4,67.3,29.85,NE,43,0.0,1.0,87,0.00,,,0.00,Wunderground v.1.15,2013-01-16 13:45:00,
2013-01-17 00:50:00,71.3,67.2,29.86,NNE,26,0.0,1.0,87,0.00,,,0.00,Wunderground v.1.15,2013-01-16 13:50:00,
2013-01-17 00:55:00,71.2,67.1,29.85,NNE,30,0.0,1.0,87,0.00,,,0.00,Wunderground v.1.15,2013-01-16 13:55:00,
2013-01-17 01:00:00,71.2,67.5,29.86,ENE,57,0.0,0.0,88,0.00,,,0.00,Wunderground v.1.15,2013-01-16 14:00:00,
2013-01-17 01:07:00,71.1,67.4,29.86,East,89,1.0,4.0,88,0.00,,,0.00,Wunderground v.1.15,2013-01-16 14:07:00,
2013-01-17 01:12:00,71.2,67.5,29.86,ENE,76,0.0,1.0,88,0.00,,,0.00,Wunderground v.1.15,2013-01-16 14:12:00,
2013-01-17 01:18:00,71.1,67.4,29.85,ENE,68,0.0,1.0,88,0.00,,,0.00,Wunderground v.1.15,2013-01-16 14:18:00,
2013-01-17 01:23:00,71.1,67.4,29.85,NE,55,0.0,0.0,88,0.00,,,0.00,Wunderground v.1.15,2013-01-16 14:23:00,
2013-01-17 01:28:00,71.0,67.3,29.85,ENE,74,0.0,1.0,88,0.00,,,0.00,Wunderground v.1.15,2013-01-16 14:28:00,
2013-01-17 01:34:00,70.9,67.2,29.85,East,84,0.0,2.0,88,0.00,,,0.00,Wunderground v.1.15,2013-01-16 14:34:00,
2013-01-17 01:40:00,70.9,67.2,29.85,NE,42,1.0,1.0,88,0.00,,,0.00,Wunderground v.1.15,2013-01-16 14:40:00,
2013-01-17 01:45:00,70.8,67.4,29.85,ENE,65,1.0,2.0,89,0.00,,,0.00,Wunderground v.1.15,2013-01-16 14:45:00,
2013-01-17 01:50:00,70.7,67.3,29.85,ENE,78,0.0,1.0,89,0.00,,,0.00,Wunderground v.1.15,2013-01-16 14:50:00,
2013-01-17 01:55:00,70.6,67.2,29.84,ENE,78,0.0,1.0,89,0.00,,,0.00,Wunderground v.1.15,2013-01-16 14:55:00,
2013-01-17 02:01:00,70.7,67.3,29.84,North,-999,0.0,0.0,89,0.00,,,-99.99,WeatherLink 6.0.2,2013-01-16 15:01:00,
2013-01-17 02:06:00,70.3,67.2,29.84,ENE,74,0.0,4.0,90,0.00,,,0.00,Wunderground v.1.15,2013-01-16 15:06:00,
2013-01-17 02:11:00,70.4,67.3,29.84,ENE,67,1.0,4.0,90,0.00,,,-99.99,WeatherLink 6.0.2,2013-01-16 15:11:00,
2013-01-17 02:16:00,70.2,67.1,29.83,NNE,13,0.0,2.0,90,0.00,,,0.00,Wunderground v.1.15,2013-01-16 15:16:00,
2013-01-17 02:21:00,70.2,67.1,29.83,NNE,19,0.0,0.0,90,0.00,,,0.00,Wunderground v.1.15,2013-01-16 15:21:00,
2013-01-17 02:26:00,70.1,67.0,29.83,NNE,26,0.0,0.0,90,0.00,,,0.00,Wunderground v.1.15,2013-01-16 15:26:00,
2013-01-17 02:31:00,70.1,67.0,29.83,NNE,27,0.0,0.0,90,0.00,,,0.00,Wunderground v.1.15,2013-01-16 15:31:00,
2013-01-17 02:36:00,70.0,66.9,29.82,NNW,342,0.0,0.0,90,0.00,,,0.00,Wunderground v.1.15,2013-01-16 15:36:00,
2013-01-17 02:41:00,69.9,66.8,29.82,North,-999,0.0,0.0,90,0.00,,,-99.99,WeatherLink 6.0.2,2013-01-16 15:41:00,
2013-01-17 02:46:00,69.8,66.7,29.82,NNE,22,0.0,2.0,90,0.00,,,0.00,Wunderground v.1.15,2013-01-16 15:46:00,
2013-01-17 02:51:00,69.9,66.8,29.82,NE,36,1.0,1.0,90,0.00,,,0.00,Wunderground v.1.15,2013-01-16 15:51:00,
2013-01-17 02:55:00,69.9,66.8,29.82,NNE,22,1.0,2.0,90,0.00,,,-99.99,WeatherLink 6.0.2,2013-01-16 15:55:00,
2013-01-17 02:57:00,69.9,66.8,29.82,NE,45,1.0,4.0,90,0.00,,,0.00,Wunderground v.1.15,2013-01-16 15:57:00,
2013-01-17 03:00:00,70.0,66.9,29.82,NNE,22,1.0,4.0,90,0.00,,,-99.99,WeatherLink 6.0.2,2013-01-16 16:00:00,
2013-01-17 03:02:00,70.0,66.9,29.82,NNE,30,1.0,2.0,90,0.00,,,0.00,Wunderground v.1.15,2013-01-16 16:02:00,
2013-01-17 03:05:00,70.0,66.9,29.82,NNE,22,1.0,3.0,90,0.00,,,-99.99,WeatherLink 6.0.2,2013-01-16 16:05:00,
2013-01-17 03:07:00,70.0,66.9,29.82,NE,39,1.0,3.0,90,0.00,,,0.00,Wunderground v.1.15,2013-01-16 16:07:00,
2013-01-17 03:10:00,70.0,66.9,29.82,NNE,22,1.0,2.0,90,0.00,,,-99.99,WeatherLink 6.0.2,2013-01-16 16:10:00,
2013-01-17 03:12:00,70.1,67.0,29.82,ENE,70,0.0,2.0,90,0.00,,,0.00,Wunderground v.1.15,2013-01-16 16:12:00,
2013-01-17 03:15:00,70.0,66.9,29.82,NNE,22,0.0,2.0,90,0.00,,,-99.99,WeatherLink 6.0.2,2013-01-16 16:15:00,
2013-01-17 03:17:00,70.0,66.9,29.82,ENE,74,0.0,2.0,90,0.00,,,0.00,Wunderground v.1.15,2013-01-16 16:17:00,
2013-01-17 03:20:00,70.0,66.9,29.82,North,-999,0.0,0.0,90,0.00,,,-99.99,WeatherLink 6.0.2,2013-01-16 16:20:00,
2013-01-17 03:31:00,69.9,66.8,29.82,ENE,67,0.0,2.0,90,0.00,,,-99.99,WeatherLink 6.0.2,2013-01-16 16:31:00,
2013-01-17 03:36:00,69.8,67.1,29.82,NNE,13,0.0,3.0,91,0.00,,,0.00,Wunderground v.1.15,2013-01-16 16:36:00,
2013-01-17 03:42:00,69.8,67.1,29.82,NNE,22,1.0,3.0,91,0.00,,,-99.99,WeatherLink 6.0.2,2013-01-16 16:42:00,
2013-01-17 03:47:00,69.8,66.7,29.82,NE,34,2.0,3.0,90,0.00,,,0.00,Wunderground v.1.15,2013-01-16 16:47:00,
2013-01-17 03:52:00,69.7,66.6,29.82,NE,35,0.0,1.0,90,0.00,,,0.00,Wunderground v.1.15,2013-01-16 16:52:00,
2013-01-17 03:57:00,69.7,67.0,29.83,NE,35,1.0,2.0,91,0.00,,,0.00,Wunderground v.1.15,2013-01-16 16:57:00,
2013-01-17 04:02:00,69.7,67.0,29.83,ENE,65,2.0,2.0,91,0.00,,,0.00,Wunderground v.1.15,2013-01-16 17:02:00,
2013-01-17 04:07:00,69.7,67.0,29.83,NNE,23,0.0,2.0,91,0.00,,,0.00,Wunderground v.1.15,2013-01-16 17:07:00,
2013-01-17 04:12:00,69.7,67.0,29.83,NNE,26,0.0,1.0,91,0.00,,,0.00,Wunderground v.1.15,2013-01-16 17:12:00,
2013-01-17 04:17:00,69.6,66.9,29.83,ENE,58,0.0,2.0,91,0.00,,,0.00,Wunderground v.1.15,2013-01-16 17:17:00,
2013-01-17 04:22:00,69.6,66.9,29.83,North,5,0.0,0.0,91,0.00,,,0.00,Wunderground v.1.15,2013-01-16 17:22:00,
2013-01-17 04:27:00,69.5,67.1,29.83,NNE,30,0.0,0.0,92,0.00,,,0.00,Wunderground v.1.15,2013-01-16 17:27:00,
2013-01-17 04:32:00,69.5,67.1,29.83,North,11,0.0,0.0,92,0.00,,,0.00,Wunderground v.1.15,2013-01-16 17:32:00,
2013-01-17 04:37:00,69.4,67.0,29.83,NNE,27,0.0,0.0,92,0.00,,,0.00,Wunderground v.1.15,2013-01-16 17:37:00,
2013-01-17 04:42:00,69.4,67.0,29.83,NNE,23,1.0,3.0,92,0.00,,,0.00,Wunderground v.1.15,2013-01-16 17:42:00,
2013-01-17 04:47:00,69.4,67.3,29.83,NE,42,0.0,3.0,93,0.00,,,0.00,Wunderground v.1.15,2013-01-16 17:47:00,
2013-01-17 04:52:00,69.4,67.3,29.83,North,1,0.0,1.0,93,0.00,,,0.00,Wunderground v.1.15,2013-01-16 17:52:00,
2013-01-17 04:57:00,69.3,67.2,29.83,NNE,26,0.0,1.0,93,0.00,,,0.00,Wunderground v.1.15,2013-01-16 17:57:00,
2013-01-17 05:02:00,69.2,67.1,29.83,North,350,0.0,1.0,93,0.00,,,0.00,Wunderground v.1.15,2013-01-16 18:02:00,
2013-01-17 05:07:00,69.1,67.0,29.83,NNE,15,0.0,1.0,93,0.00,,,0.00,Wunderground v.1.15,2013-01-16 18:07:00,
2013-01-17 05:12:00,69.0,66.9,29.84,North,9,0.0,0.0,93,0.00,,,0.00,Wunderground v.1.15,2013-01-16 18:12:00,
2013-01-17 05:17:00,68.8,67.0,29.84,North,11,0.0,0.0,94,0.00,,,0.00,Wunderground v.1.15,2013-01-16 18:17:00,
2013-01-17 05:22:00,68.6,66.8,29.84,North,11,0.0,0.0,94,0.00,,,0.00,Wunderground v.1.15,2013-01-16 18:22:00,
2013-01-17 05:27:00,68.4,66.6,29.84,North,11,0.0,0.0,94,0.00,,,0.00,Wunderground v.1.15,2013-01-16 18:27:00,
2013-01-17 05:32:00,68.3,66.5,29.85,NE,35,0.0,0.0,94,0.00,,,0.00,Wunderground v.1.15,2013-01-16 18:32:00,
2013-01-17 05:37:00,68.1,66.3,29.84,NE,35,0.0,0.0,94,0.00,,,0.00,Wunderground v.1.15,2013-01-16 18:37:00,
2013-01-17 05:43:00,68.0,66.5,29.84,NE,35,0.0,0.0,95,0.00,,,0.00,Wunderground v.1.15,2013-01-16 18:43:00,
2013-01-17 05:48:00,67.9,66.4,29.84,NE,51,0.0,0.0,95,0.00,,,0.00,Wunderground v.1.15,2013-01-16 18:48:00,
2013-01-17 05:53:00,67.9,66.4,29.85,NE,51,0.0,0.0,95,0.00,,,0.00,Wunderground v.1.15,2013-01-16 18:53:00,
2013-01-17 05:58:00,67.8,66.3,29.85,NE,51,0.0,0.0,95,0.00,,,0.00,Wunderground v.1.15,2013-01-16 18:58:00,
2013-01-17 06:03:00,67.8,66.3,29.85,NE,51,0.0,0.0,95,0.00,,,0.00,Wunderground v.1.15,2013-01-16 19:03:00,
2013-01-17 06:08:00,67.8,66.3,29.85,NE,50,0.0,0.0,95,0.00,,,0.00,Wunderground v.1.15,2013-01-16 19:08:00,
2013-01-17 06:13:00,67.8,66.3,29.85,NE,51,0.0,0.0,95,0.00,,,0.00,Wunderground v.1.15,2013-01-16 19:13:00,
2013-01-17 06:18:00,67.7,66.2,29.85,NE,51,0.0,0.0,95,0.00,,,0.00,Wunderground v.1.15,2013-01-16 19:18:00,
2013-01-17 06:23:00,67.7,66.2,29.85,NE,52,0.0,0.0,95,0.00,,,0.00,Wunderground v.1.15,2013-01-16 19:23:00,
2013-01-17 06:28:00,67.8,66.3,29.86,NE,53,0.0,0.0,95,0.00,,,0.00,Wunderground v.1.15,2013-01-16 19:28:00,
2013-01-17 06:33:00,67.9,66.4,29.86,NE,51,0.0,0.0,95,0.00,,,0.00,Wunderground v.1.15,2013-01-16 19:33:00,
2013-01-17 06:38:00,68.0,66.5,29.86,North,8,0.0,2.0,95,0.00,,,0.00,Wunderground v.1.15,2013-01-16 19:38:00,
2013-01-17 06:43:00,68.1,66.6,29.86,North,10,0.0,0.0,95,0.00,,,0.00,Wunderground v.1.15,2013-01-16 19:43:00,
2013-01-17 06:48:00,68.1,66.6,29.86,North,8,0.0,4.0,95,0.00,,,0.00,Wunderground v.1.15,2013-01-16 19:48:00,
2013-01-17 06:53:00,68.2,66.7,29.86,North,3,0.0,2.0,95,0.00,,,0.00,Wunderground v.1.15,2013-01-16 19:53:00,
2013-01-17 06:55:00,68.2,66.7,29.86,NNE,22,0.0,3.0,95,0.00,,,-99.99,WeatherLink 6.0.2,2013-01-16 19:55:00,
2013-01-17 06:58:00,68.3,66.8,29.86,North,4,3.0,3.0,95,0.00,,,0.00,Wunderground v.1.15,2013-01-16 19:58:00,
2013-01-17 07:00:00,68.3,66.5,29.86,North,0,1.0,3.0,94,0.00,,,-99.99,WeatherLink 6.0.2,2013-01-16 20:00:00,
2013-01-17 07:03:00,68.3,66.5,29.86,North,4,1.0,4.0,94,0.00,,,0.00,Wunderground v.1.15,2013-01-16 20:03:00,
2013-01-17 07:08:00,68.4,66.3,29.86,NNE,17,2.0,7.0,93,0.00,,,0.00,Wunderground v.1.15,2013-01-16 20:08:00,
2013-01-17 07:13:00,68.3,66.5,29.86,North,359,2.0,5.0,94,0.00,,,0.00,Wunderground v.1.15,2013-01-16 20:13:00,
2013-01-17 07:18:00,68.4,66.6,29.86,North,355,2.0,5.0,94,0.00,,,0.00,Wunderground v.1.15,2013-01-16 20:18:00,
2013-01-17 07:23:00,68.4,66.6,29.86,NNE,12,7.0,7.0,94,0.00,,,0.00,Wunderground v.1.15,2013-01-16 20:23:00,
2013-01-17 07:29:00,68.3,66.5,29.87,North,353,3.0,7.0,94,0.00,,,0.00,Wunderground v.1.15,2013-01-16 20:29:00,
2013-01-17 07:34:00,68.1,66.3,29.87,North,351,4.0,5.0,94,0.00,,,0.00,Wunderground v.1.15,2013-01-16 20:34:00,
2013-01-17 07:35:00,68.1,66.3,29.87,North,0,3.0,6.0,94,0.00,,,-99.99,WeatherLink 6.0.2,2013-01-16 20:35:00,
2013-01-17 07:39:00,67.9,66.4,29.87,NE,40,3.0,9.0,95,0.00,,,0.00,Wunderground v.1.15,2013-01-16 20:39:00,
2013-01-17 07:40:00,67.9,66.4,29.87,North,0,4.0,9.0,95,0.00,,,-99.99,WeatherLink 6.0.2,2013-01-16 20:40:00,
2013-01-17 07:44:00,67.7,66.2,29.87,North,8,1.0,7.0,95,0.00,,,0.00,Wunderground v.1.15,2013-01-16 20:44:00,
2013-01-17 07:49:00,67.9,66.7,29.87,NNE,26,1.0,7.0,96,0.00,,,0.00,Wunderground v.1.15,2013-01-16 20:49:00,
2013-01-17 07:54:00,68.0,66.8,29.87,North,4,2.0,5.0,96,0.00,,,0.00,Wunderground v.1.15,2013-01-16 20:54:00,
2013-01-17 07:59:00,68.1,66.9,29.87,WSW,252,0.0,7.0,96,0.00,,,0.00,Wunderground v.1.15,2013-01-16 20:59:00,
2013-01-17 08:04:00,68.3,67.1,29.87,NNE,15,2.0,3.0,96,0.00,,,0.00,Wunderground v.1.15,2013-01-16 21:04:00,
2013-01-17 08:05:00,68.2,67.0,29.87,North,0,1.0,4.0,96,0.00,,,-99.99,WeatherLink 6.0.2,2013-01-16 21:05:00,
2013-01-17 08:09:00,68.4,67.2,29.87,North,356,0.0,4.0,96,0.00,,,0.00,Wunderground v.1.15,2013-01-16 21:09:00,
2013-01-17 08:10:00,68.3,67.1,29.87,NNE,22,1.0,5.0,96,0.00,,,-99.99,WeatherLink 6.0.2,2013-01-16 21:10:00,
2013-01-17 08:14:00,68.6,67.4,29.88,WSW,242,1.0,2.0,96,0.00,,,0.00,Wunderground v.1.15,2013-01-16 21:14:00,
2013-01-17 08:19:00,68.9,68.0,29.87,NE,35,1.0,2.0,97,0.00,,,0.00,Wunderground v.1.15,2013-01-16 21:19:00,
2013-01-17 08:24:00,69.2,68.3,29.87,SE,127,1.0,2.0,97,0.00,,,0.00,Wunderground v.1.15,2013-01-16 21:24:00,
2013-01-17 08:29:00,69.5,68.3,29.87,WSW,249,1.0,4.0,96,0.00,,,0.00,Wunderground v.1.15,2013-01-16 21:29:00,
2013-01-17 08:34:00,69.9,68.7,29.88,West,273,0.0,3.0,96,0.00,,,0.00,Wunderground v.1.15,2013-01-16 21:34:00,
2013-01-17 08:39:00,70.4,68.9,29.87,SSW,202,2.0,3.0,95,0.00,,,0.00,Wunderground v.1.15,2013-01-16 21:39:00,
2013-01-17 08:44:00,70.7,69.2,29.87,North,360,0.0,2.0,95,0.00,,,0.00,Wunderground v.1.15,2013-01-16 21:44:00,
2013-01-17 08:49:00,71.2,69.4,29.87,SW,220,1.0,3.0,94,0.00,,,0.00,Wunderground v.1.15,2013-01-16 21:49:00,
2013-01-17 08:54:00,71.9,69.4,29.86,WSW,246,0.0,2.0,92,0.00,,,0.00,Wunderground v.1.15,2013-01-16 21:54:00,
2013-01-17 08:59:00,72.6,69.5,29.86,NW,319,0.0,4.0,90,0.00,,,0.00,Wunderground v.1.15,2013-01-16 21:59:00,
2013-01-17 09:04:00,73.2,69.4,29.86,WNW,303,2.0,4.0,88,0.00,,,0.00,Wunderground v.1.15,2013-01-16 22:04:00,
2013-01-17 09:09:00,73.7,69.2,29.86,WNW,299,0.0,5.0,86,0.00,,,0.00,Wunderground v.1.15,2013-01-16 22:09:00,
2013-01-17 09:14:00,74.6,69.4,29.86,NNE,15,0.0,3.0,84,0.00,,,0.00,Wunderground v.1.15,2013-01-16 22:14:00,
2013-01-17 09:19:00,75.4,69.5,29.86,SSW,208,0.0,3.0,82,0.00,,,0.00,Wunderground v.1.15,2013-01-16 22:19:00,
2013-01-17 09:24:00,75.5,68.9,29.86,West,264,1.0,4.0,80,0.00,,,0.00,Wunderground v.1.15,2013-01-16 22:24:00,
2013-01-17 09:29:00,76.2,69.9,29.86,WNW,290,1.0,4.0,81,0.00,,,0.00,Wunderground v.1.15,2013-01-16 22:29:00,
2013-01-17 09:34:00,76.8,68.7,29.86,North,356,4.0,5.0,76,0.00,,,0.00,Wunderground v.1.15,2013-01-16 22:34:00,
2013-01-17 09:39:00,76.6,69.2,29.85,WNW,296,0.0,5.0,78,0.00,,,0.00,Wunderground v.1.15,2013-01-16 22:39:00,
2013-01-17 09:44:00,76.9,69.5,29.85,WSW,255,1.0,5.0,78,0.00,,,0.00,Wunderground v.1.15,2013-01-16 22:44:00,
2013-01-17 09:49:00,77.4,69.6,29.85,WNW,294,2.0,6.0,77,0.00,,,0.00,Wunderground v.1.15,2013-01-16 22:49:00,
2013-01-17 09:54:00,77.5,69.7,29.85,SSW,213,0.0,5.0,77,0.00,,,0.00,Wunderground v.1.15,2013-01-16 22:54:00,
2013-01-17 09:59:00,78.2,69.2,29.85,North,355,4.0,4.0,74,0.00,,,0.00,Wunderground v.1.15,2013-01-16 22:59:00,
2013-01-17 10:04:00,77.8,69.2,29.85,North,1,0.0,4.0,75,0.00,,,0.00,Wunderground v.1.15,2013-01-16 23:04:00,
2013-01-17 10:10:00,78.4,69.4,29.84,North,359,3.0,3.0,74,0.00,,,0.00,Wunderground v.1.15,2013-01-16 23:10:00,
2013-01-17 10:15:00,77.9,69.3,29.84,South,179,3.0,5.0,75,0.00,,,0.00,Wunderground v.1.15,2013-01-16 23:15:00,
2013-01-17 10:20:00,78.0,69.8,29.84,West,279,0.0,2.0,76,0.00,,,0.00,Wunderground v.1.15,2013-01-16 23:20:00,
2013-01-17 10:25:00,79.6,69.8,29.84,NW,304,3.0,3.0,72,0.00,,,0.00,Wunderground v.1.15,2013-01-16 23:25:00,
2013-01-17 10:30:00,79.6,69.4,29.84,North,353,1.0,2.0,71,0.00,,,0.00,Wunderground v.1.15,2013-01-16 23:30:00,
2013-01-17 10:35:00,79.9,69.7,29.84,NE,51,1.0,2.0,71,0.00,,,0.00,Wunderground v.1.15,2013-01-16 23:35:00,
2013-01-17 10:40:00,80.3,69.6,29.84,WSW,257,0.0,1.0,70,0.00,,,0.00,Wunderground v.1.15,2013-01-16 23:40:00,
2013-01-17 10:45:00,80.8,69.7,29.84,North,353,2.0,4.0,69,0.00,,,0.00,Wunderground v.1.15,2013-01-16 23:45:00,
2013-01-17 10:50:00,81.3,70.6,29.84,West,278,0.0,2.0,70,0.00,,,0.00,Wunderground v.1.15,2013-01-16 23:50:00,
2013-01-17 10:55:00,81.8,69.8,29.83,North,359,4.0,5.0,67,0.00,,,0.00,Wunderground v.1.15,2013-01-16 23:55:00,
2013-01-17 11:00:00,81.8,69.8,29.83,NE,46,1.0,2.0,67,0.00,,,0.00,Wunderground v.1.15,2013-01-17 00:00:00,
2013-01-17 11:05:00,81.6,70.0,29.83,North,357,5.0,7.0,68,0.00,,,0.00,Wunderground v.1.15,2013-01-17 00:05:00,
2013-01-17 11:11:00,81.7,69.7,29.83,North,0,3.0,7.0,67,0.00,,,-99.99,WeatherLink 6.0.2,2013-01-17 00:11:00,
2013-01-17 11:16:00,81.1,69.5,29.83,North,353,3.0,5.0,68,0.00,,,0.00,Wunderground v.1.15,2013-01-17 00:16:00,
2013-01-17 11:21:00,81.2,70.1,29.83,NNW,337,3.0,6.0,69,0.00,,,-99.99,WeatherLink 6.0.2,2013-01-17 00:21:00,
2013-01-17 11:26:00,81.6,70.0,29.82,NNW,332,3.0,7.0,68,0.00,,,0.00,Wunderground v.1.15,2013-01-17 00:26:00,
2013-01-17 11:31:00,81.8,69.8,29.82,North,11,2.0,7.0,67,0.00,,,0.00,Wunderground v.1.15,2013-01-17 00:31:00,
2013-01-17 11:36:00,82.5,70.4,29.82,ENE,66,1.0,7.0,67,0.00,,,0.00,Wunderground v.1.15,2013-01-17 00:36:00,
2013-01-17 11:41:00,82.8,70.7,29.82,NNE,30,2.0,6.0,67,0.00,,,0.00,Wunderground v.1.15,2013-01-17 00:41:00,
2013-01-17 11:46:00,82.8,70.3,29.82,NNE,22,3.0,6.0,66,0.00,,,0.00,Wunderground v.1.15,2013-01-17 00:46:00,
2013-01-17 11:51:00,82.8,70.3,29.82,NNE,22,2.0,4.0,66,0.00,,,-99.99,WeatherLink 6.0.2,2013-01-17 00:51:00,
2013-01-17 11:55:00,82.9,69.9,29.82,ENE,67,2.0,5.0,65,0.00,,,-99.99,WeatherLink 6.0.2,2013-01-17 00:55:00,
2013-01-17 11:56:00,82.1,69.6,29.82,NE,42,2.0,5.0,66,0.00,,,0.00,Wunderground v.1.15,2013-01-17 00:56:00,
2013-01-17 12:00:00,81.7,70.1,29.82,ENE,67,3.0,6.0,68,0.00,,,-99.99,WeatherLink 6.0.2,2013-01-17 01:00:00,
2013-01-17 12:01:00,81.2,70.1,29.82,NE,42,1.0,6.0,69,0.00,,,0.00,Wunderground v.1.15,2013-01-17 01:01:00,
2013-01-17 12:06:00,81.6,70.0,29.81,West,278,1.0,6.0,68,0.00,,,0.00,Wunderground v.1.15,2013-01-17 01:06:00,
2013-01-17 12:11:00,81.8,69.8,29.81,NE,39,2.0,6.0,67,0.00,,,0.00,Wunderground v.1.15,2013-01-17 01:11:00,
2013-01-17 12:16:00,82.3,69.4,29.81,NE,47,1.0,6.0,65,0.00,,,0.00,Wunderground v.1.15,2013-01-17 01:16:00,
2013-01-17 12:21:00,82.0,69.5,29.81,ENE,67,2.0,4.0,66,0.00,,,-99.99,WeatherLink 6.0.2,2013-01-17 01:21:00,
2013-01-17 12:26:00,83.0,69.1,29.81,North,357,3.0,5.0,63,0.00,,,0.00,Wunderground v.1.15,2013-01-17 01:26:00,
2013-01-17 12:31:00,82.3,68.9,29.81,NE,36,2.0,3.0,64,0.00,,,0.00,Wunderground v.1.15,2013-01-17 01:31:00,
2013-01-17 12:36:00,82.5,69.1,29.81,NNE,22,2.0,9.0,64,0.00,,,0.00,Wunderground v.1.15,2013-01-17 01:36:00,
2013-01-17 12:41:00,82.9,69.0,29.81,NNE,19,2.0,5.0,63,0.00,,,0.00,Wunderground v.1.15,2013-01-17 01:41:00,
2013-01-17 12:46:00,83.0,69.1,29.81,North,357,2.0,8.0,63,0.00,,,0.00,Wunderground v.1.15,2013-01-17 01:46:00,
2013-01-17 12:51:00,83.2,68.8,29.80,NW,317,1.0,4.0,62,0.00,,,0.00,Wunderground v.1.15,2013-01-17 01:51:00,
2013-01-17 12:56:00,83.4,69.5,29.80,NNE,17,2.0,6.0,63,0.00,,,0.00,Wunderground v.1.15,2013-01-17 01:56:00,
2013-01-17 13:01:00,83.5,69.1,29.80,NNE,15,1.0,9.0,62,0.00,,,0.00,Wunderground v.1.15,2013-01-17 02:01:00,
2013-01-17 13:05:00,83.3,69.8,29.80,NE,45,3.0,9.0,64,0.00,,,-99.99,WeatherLink 6.0.2,2013-01-17 02:05:00,
2013-01-17 13:06:00,83.3,70.3,29.80,ENE,65,1.0,9.0,65,0.00,,,0.00,Wunderground v.1.15,2013-01-17 02:06:00,
2013-01-17 13:10:00,83.4,69.5,29.80,ENE,67,2.0,5.0,63,0.00,,,-99.99,WeatherLink 6.0.2,2013-01-17 02:10:00,
2013-01-17 13:11:00,83.5,69.1,29.80,NNE,27,2.0,5.0,62,0.00,,,0.00,Wunderground v.1.15,2013-01-17 02:11:00,
2013-01-17 13:16:00,82.6,69.6,29.79,NE,43,2.0,12.0,65,0.00,,,0.00,Wunderground v.1.15,2013-01-17 02:16:00,
2013-01-17 13:21:00,83.3,69.8,29.79,ENE,67,3.0,12.0,64,0.00,,,-99.99,WeatherLink 6.0.2,2013-01-17 02:21:00,
2013-01-17 13:26:00,82.6,69.6,29.79,NE,47,4.0,5.0,65,0.00,,,0.00,Wunderground v.1.15,2013-01-17 02:26:00,
2013-01-17 13:31:00,82.7,68.8,29.79,NNE,31,2.0,7.0,63,0.00,,,0.00,Wunderground v.1.15,2013-01-17 02:31:00,
2013-01-17 13:37:00,82.4,69.9,29.79,NNE,17,2.0,9.0,66,0.00,,,0.00,Wunderground v.1.15,2013-01-17 02:37:00,
2013-01-17 13:42:00,82.9,69.5,29.78,NW,321,1.0,6.0,64,0.00,,,0.00,Wunderground v.1.15,2013-01-17 02:42:00,
2013-01-17 13:46:00,83.0,70.0,29.78,East,90,3.0,11.0,65,0.00,,,0.00,Wunderground v.1.15,2013-01-17 02:46:00,
2013-01-17 13:52:00,82.4,69.9,29.78,NNE,12,4.0,11.0,66,0.00,,,0.00,Wunderground v.1.15,2013-01-17 02:52:00,
2013-01-17 13:57:00,81.9,69.4,29.78,NE,42,4.0,11.0,66,0.00,,,0.00,Wunderground v.1.15,2013-01-17 02:57:00,
2013-01-17 14:02:00,82.2,69.7,29.77,ENE,70,2.0,6.0,66,0.00,,,0.00,Wunderground v.1.15,2013-01-17 03:02:00,
2013-01-17 14:07:00,82.3,69.8,29.77,North,1,5.0,8.0,66,0.00,,,0.00,Wunderground v.1.15,2013-01-17 03:07:00,
2013-01-17 14:12:00,82.2,69.7,29.77,ENE,67,4.0,9.0,66,0.00,,,-99.99,WeatherLink 6.0.2,2013-01-17 03:12:00,
2013-01-17 14:17:00,82.9,70.4,29.77,North,1,2.0,7.0,66,0.00,,,0.00,Wunderground v.1.15,2013-01-17 03:17:00,
2013-01-17 14:22:00,82.9,69.9,29.76,NNW,330,2.0,7.0,65,0.00,,,0.00,Wunderground v.1.15,2013-01-17 03:22:00,
2013-01-17 14:27:00,82.7,70.2,29.76,ENE,76,3.0,10.0,66,0.00,,,0.00,Wunderground v.1.15,2013-01-17 03:27:00,
2013-01-17 14:32:00,82.8,70.3,29.76,ENE,67,3.0,13.0,66,0.00,,,-99.99,WeatherLink 6.0.2,2013-01-17 03:32:00,
2013-01-17 14:37:00,83.0,70.5,29.76,NE,51,2.0,6.0,66,0.00,,,0.00,Wunderground v.1.15,2013-01-17 03:37:00,
2013-01-17 14:42:00,82.8,70.3,29.75,NNW,338,2.0,7.0,66,0.00,,,0.00,Wunderground v.1.15,2013-01-17 03:42:00,
2013-01-17 14:47:00,83.2,70.7,29.75,NNW,342,2.0,10.0,66,0.00,,,0.00,Wunderground v.1.15,2013-01-17 03:47:00,
2013-01-17 14:52:00,81.8,70.6,29.75,NE,55,2.0,12.0,69,0.00,,,0.00,Wunderground v.1.15,2013-01-17 03:52:00,
2013-01-17 14:55:00,81.9,70.7,29.75,ENE,67,3.0,8.0,69,0.00,,,-99.99,WeatherLink 6.0.2,2013-01-17 03:55:00,
2013-01-17 14:57:00,81.9,70.7,29.75,NNW,330,6.0,12.0,69,0.00,,,0.00,Wunderground v.1.15,2013-01-17 03:57:00,
2013-01-17 15:00:00,81.9,70.7,29.75,East,90,3.0,10.0,69,0.00,,,-99.99,WeatherLink 6.0.2,2013-01-17 04:00:00,
2013-01-17 15:02:00,82.2,70.6,29.74,NE,47,3.0,5.0,68,0.00,,,0.00,Wunderground v.1.15,2013-01-17 04:02:00,
2013-01-17 15:07:00,82.0,70.4,29.74,NNE,23,2.0,9.0,68,0.00,,,0.00,Wunderground v.1.15,2013-01-17 04:07:00,
2013-01-17 15:12:00,82.1,70.5,29.74,East,91,6.0,9.0,68,0.00,,,0.00,Wunderground v.1.15,2013-01-17 04:12:00,
2013-01-17 15:17:00,82.0,70.4,29.74,North,3,6.0,14.0,68,0.00,,,0.00,Wunderground v.1.15,2013-01-17 04:17:00,
2013-01-17 15:22:00,82.1,70.5,29.74,ENE,59,1.0,9.0,68,0.00,,,0.00,Wunderground v.1.15,2013-01-17 04:22:00,
2013-01-17 15:27:00,82.0,70.4,29.74,NNE,15,3.0,12.0,68,0.00,,,0.00,Wunderground v.1.15,2013-01-17 04:27:00,
2013-01-17 15:32:00,82.3,70.7,29.74,ENE,65,1.0,5.0,68,0.00,,,0.00,Wunderground v.1.15,2013-01-17 04:32:00,
2013-01-17 15:37:00,82.2,70.6,29.73,NNE,15,6.0,14.0,68,0.00,,,0.00,Wunderground v.1.15,2013-01-17 04:37:00,
2013-01-17 15:42:00,82.3,70.7,29.73,NNE,26,3.0,6.0,68,0.00,,,0.00,Wunderground v.1.15,2013-01-17 04:42:00,
2013-01-17 15:45:00,82.3,71.1,29.73,ENE,67,3.0,6.0,69,0.00,,,-99.99,WeatherLink 6.0.2,2013-01-17 04:45:00,
2013-01-17 15:47:00,82.4,70.8,29.73,NNE,14,5.0,6.0,68,0.00,,,0.00,Wunderground v.1.15,2013-01-17 04:47:00,
2013-01-17 15:50:00,82.3,71.1,29.73,NE,45,4.0,10.0,69,0.00,,,-99.99,WeatherLink 6.0.2,2013-01-17 04:50:00,
2013-01-17 15:52:00,82.3,71.1,29.73,ESE,120,9.0,10.0,69,0.00,,,0.00,Wunderground v.1.15,2013-01-17 04:52:00,
2013-01-17 15:57:00,82.3,71.1,29.73,ESE,110,1.0,10.0,69,0.00,,,0.00,Wunderground v.1.15,2013-01-17 04:57:00,
2013-01-17 16:00:00,82.5,70.9,29.73,NNW,336,3.0,3.0,68,0.00,,,0.00,Wunderground v.1.15,2013-01-17 05:00:00,
2013-01-17 16:01:00,82.7,71.1,29.73,NE,42,3.0,5.0,68,0.00,,,0.00,Wunderground v.1.15,2013-01-17 05:01:00,
2013-01-17 16:02:00,82.3,70.7,29.73,NNE,22,3.0,9.0,68,0.00,,,-99.99,WeatherLink 6.0.2,2013-01-17 05:02:00,
2013-01-17 16:03:00,82.7,71.1,29.73,ENE,57,4.0,6.0,68,0.00,,,0.00,Wunderground v.1.15,2013-01-17 05:03:00,
2013-01-17 16:08:00,82.5,70.4,29.73,West,261,2.0,11.0,67,0.00,,,0.00,Wunderground v.1.15,2013-01-17 05:08:00,
2013-01-17 16:13:00,82.3,71.1,29.73,NNE,30,2.0,5.0,69,0.00,,,0.00,Wunderground v.1.15,2013-01-17 05:13:00,
2013-01-17 16:18:00,82.8,70.7,29.72,ENE,61,3.0,6.0,67,0.00,,,0.00,Wunderground v.1.15,2013-01-17 05:18:00,
2013-01-17 16:23:00,82.9,71.3,29.72,NE,37,0.0,11.0,68,0.00,,,0.00,Wunderground v.1.15,2013-01-17 05:23:00,
2013-01-17 16:28:00,83.7,71.6,29.72,NNW,342,3.0,11.0,67,0.00,,,0.00,Wunderground v.1.15,2013-01-17 05:28:00,
2013-01-17 16:33:00,83.2,71.1,29.72,NNW,342,2.0,9.0,67,0.00,,,0.00,Wunderground v.1.15,2013-01-17 05:33:00,
2013-01-17 16:38:00,82.9,70.8,29.71,NW,310,2.0,14.0,67,0.00,,,0.00,Wunderground v.1.15,2013-01-17 05:38:00,
2013-01-17 16:43:00,82.7,70.6,29.71,ESE,105,4.0,12.0,67,0.00,,,0.00,Wunderground v.1.15,2013-01-17 05:43:00,
2013-01-17 16:48:00,82.4,70.8,29.71,NW,309,4.0,15.0,68,0.00,,,0.00,Wunderground v.1.15,2013-01-17 05:48:00,
2013-01-17 16:53:00,82.5,70.9,29.71,ENE,59,2.0,12.0,68,0.00,,,0.00,Wunderground v.1.15,2013-01-17 05:53:00,
2013-01-17 16:58:00,81.8,70.2,29.71,ESE,107,2.0,12.0,68,0.00,,,0.00,Wunderground v.1.15,2013-01-17 05:58:00,
2013-01-17 17:03:00,82.1,70.5,29.71,East,92,4.0,7.0,68,0.00,,,0.00,Wunderground v.1.15,2013-01-17 06:03:00,
2013-01-17 17:08:00,82.2,71.0,29.71,NNE,16,2.0,11.0,69,0.00,,,0.00,Wunderground v.1.15,2013-01-17 06:08:00,
2013-01-17 17:13:00,82.3,70.7,29.70,North,352,3.0,5.0,68,0.00,,,0.00,Wunderground v.1.15,2013-01-17 06:13:00,
2013-01-17 17:15:00,82.3,70.7,29.70,NE,45,3.0,10.0,68,0.00,,,-99.99,WeatherLink 6.0.2,2013-01-17 06:15:00,
2013-01-17 17:18:00,82.4,70.3,29.70,NE,53,5.0,14.0,67,0.00,,,0.00,Wunderground v.1.15,2013-01-17 06:18:00,
2013-01-17 17:20:00,82.4,70.8,29.70,ENE,67,4.0,14.0,68,0.00,,,-99.99,WeatherLink 6.0.2,2013-01-17 06:20:00,
2013-01-17 17:23:00,82.2,70.1,29.70,North,4,4.0,12.0,67,0.00,,,0.00,Wunderground v.1.15,2013-01-17 06:23:00,
2013-01-17 17:28:00,81.9,70.3,29.70,NE,46,4.0,12.0,68,0.00,,,0.00,Wunderground v.1.15,2013-01-17 06:28:00,
2013-01-17 17:33:00,81.8,70.2,29.70,East,92,4.0,13.0,68,0.00,,,0.00,Wunderground v.1.15,2013-01-17 06:33:00,
2013-01-17 17:38:00,81.6,70.4,29.70,NE,36,4.0,13.0,69,0.00,,,0.00,Wunderground v.1.15,2013-01-17 06:38:00,
2013-01-17 17:44:00,81.3,70.2,29.70,NNW,341,3.0,17.0,69,0.00,,,0.00,Wunderground v.1.15,2013-01-17 06:44:00,
2013-01-17 17:49:00,81.4,70.2,29.70,NE,46,3.0,17.0,69,0.00,,,0.00,Wunderground v.1.15,2013-01-17 06:49:00,
2013-01-17 17:54:00,81.3,70.6,29.70,NNE,15,4.0,7.0,70,0.00,,,0.00,Wunderground v.1.15,2013-01-17 06:54:00,
2013-01-17 17:59:00,81.1,70.4,29.69,NNE,30,4.0,10.0,70,0.00,,,0.00,Wunderground v.1.15,2013-01-17 06:59:00,
2013-01-17 18:04:00,80.9,70.6,29.70,East,92,3.0,6.0,71,0.00,,,0.00,Wunderground v.1.15,2013-01-17 07:04:00,
2013-01-17 18:09:00,80.5,70.2,29.70,NNE,13,2.0,12.0,71,0.00,,,0.00,Wunderground v.1.15,2013-01-17 07:09:00,
2013-01-17 18:14:00,80.4,70.1,29.70,NNE,13,3.0,7.0,71,0.00,,,0.00,Wunderground v.1.15,2013-01-17 07:14:00,
2013-01-17 18:19:00,80.2,70.4,29.70,ENE,61,2.0,10.0,72,0.00,,,0.00,Wunderground v.1.15,2013-01-17 07:19:00,
2013-01-17 18:24:00,80.0,70.2,29.70,NE,42,3.0,7.0,72,0.00,,,0.00,Wunderground v.1.15,2013-01-17 07:24:00,
2013-01-17 18:29:00,79.8,70.0,29.70,NNE,32,7.0,10.0,72,0.00,,,0.00,Wunderground v.1.15,2013-01-17 07:29:00,
2013-01-17 18:34:00,79.6,70.2,29.70,NNE,32,1.0,9.0,73,0.00,,,0.00,Wunderground v.1.15,2013-01-17 07:34:00,
2013-01-17 18:39:00,79.3,70.3,29.70,North,359,3.0,9.0,74,0.00,,,0.00,Wunderground v.1.15,2013-01-17 07:39:00,
2013-01-17 18:44:00,79.2,70.2,29.70,North,8,3.0,12.0,74,0.00,,,0.00,Wunderground v.1.15,2013-01-17 07:44:00,
2013-01-17 18:49:00,78.9,69.9,29.70,NNE,22,2.0,12.0,74,0.00,,,0.00,Wunderground v.1.15,2013-01-17 07:49:00,
2013-01-17 18:54:00,78.7,70.1,29.70,ENE,69,2.0,9.0,75,0.00,,,0.00,Wunderground v.1.15,2013-01-17 07:54:00,
2013-01-17 18:59:00,78.5,69.5,29.70,NNE,19,2.0,3.0,74,0.00,,,0.00,Wunderground v.1.15,2013-01-17 07:59:00,
2013-01-17 19:04:00,78.2,69.6,29.70,ENE,57,2.0,10.0,75,0.00,,,0.00,Wunderground v.1.15,2013-01-17 08:04:00,
2013-01-17 19:09:00,77.9,69.7,29.70,North,352,1.0,4.0,76,0.00,,,0.00,Wunderground v.1.15,2013-01-17 08:09:00,
2013-01-17 19:14:00,77.7,69.5,29.70,East,98,3.0,10.0,76,0.00,,,0.00,Wunderground v.1.15,2013-01-17 08:14:00,
2013-01-17 19:19:00,77.4,69.6,29.70,NE,43,4.0,4.0,77,0.00,,,0.00,Wunderground v.1.15,2013-01-17 08:19:00,
2013-01-17 19:24:00,77.2,69.8,29.70,NNE,30,3.0,9.0,78,0.00,,,0.00,Wunderground v.1.15,2013-01-17 08:24:00,
2013-01-17 19:29:00,76.9,69.5,29.70,ENE,58,6.0,6.0,78,0.00,,,0.00,Wunderground v.1.15,2013-01-17 08:29:00,
2013-01-17 19:34:00,76.6,69.6,29.70,NNE,17,3.0,6.0,79,0.00,,,0.00,Wunderground v.1.15,2013-01-17 08:34:00,
2013-01-17 19:39:00,76.3,69.3,29.71,North,9,3.0,3.0,79,0.00,,,0.00,Wunderground v.1.15,2013-01-17 08:39:00,
2013-01-17 19:45:00,76.0,69.4,29.70,NE,44,2.0,6.0,80,0.00,,,0.00,Wunderground v.1.15,2013-01-17 08:45:00,
2013-01-17 19:49:00,75.7,69.5,29.70,NE,55,4.0,4.0,81,0.00,,,0.00,Wunderground v.1.15,2013-01-17 08:49:00,
2013-01-17 19:55:00,75.5,69.3,29.71,NNE,22,4.0,5.0,81,0.00,,,0.00,Wunderground v.1.15,2013-01-17 08:55:00,
2013-01-17 20:00:00,75.3,69.4,29.70,NNE,17,2.0,4.0,82,0.00,,,0.00,Wunderground v.1.15,2013-01-17 09:00:00,
2013-01-17 20:05:00,75.2,69.3,29.70,NNE,12,2.0,4.0,82,0.00,,,0.00,Wunderground v.1.15,2013-01-17 09:05:00,
2013-01-17 20:10:00,75.1,69.6,29.71,North,4,2.0,3.0,83,0.00,,,0.00,Wunderground v.1.15,2013-01-17 09:10:00,
2013-01-17 20:15:00,74.9,69.4,29.71,NNE,27,2.0,4.0,83,0.00,,,0.00,Wunderground v.1.15,2013-01-17 09:15:00,
2013-01-17 20:20:00,74.9,69.7,29.71,NNE,30,1.0,3.0,84,0.00,,,0.00,Wunderground v.1.15,2013-01-17 09:20:00,
2013-01-17 20:25:00,74.8,69.6,29.71,NNE,30,2.0,5.0,84,0.00,,,0.00,Wunderground v.1.15,2013-01-17 09:25:00,
2013-01-17 20:30:00,74.6,69.8,29.71,NE,44,4.0,4.0,85,0.00,,,0.00,Wunderground v.1.15,2013-01-17 09:30:00,
2013-01-17 20:35:00,74.6,69.8,29.71,ENE,61,9.0,9.0,85,0.00,,,0.00,Wunderground v.1.15,2013-01-17 09:35:00,
2013-01-17 20:40:00,74.5,69.7,29.71,ENE,71,2.0,3.0,85,0.00,,,0.00,Wunderground v.1.15,2013-01-17 09:40:00,
2013-01-17 20:45:00,74.4,69.9,29.71,NE,34,4.0,6.0,86,0.00,,,0.00,Wunderground v.1.15,2013-01-17 09:45:00,
2013-01-17 20:50:00,74.4,69.9,29.71,NE,39,1.0,4.0,86,0.00,,,0.00,Wunderground v.1.15,2013-01-17 09:50:00,
2013-01-17 20:55:00,74.3,69.8,29.72,NNE,16,3.0,7.0,86,0.00,,,0.00,Wunderground v.1.15,2013-01-17 09:55:00,
2013-01-17 21:00:00,74.3,69.8,29.71,NE,45,2.0,6.0,86,0.00,,,-99.99,WeatherLink 6.0.2,2013-01-17 10:00:00,
2013-01-17 21:04:00,74.4,69.9,29.72,NNE,30,2.0,6.0,86,0.00,,,0.00,Wunderground v.1.15,2013-01-17 10:04:00,
2013-01-17 21:09:00,74.3,69.8,29.71,NNE,22,1.0,6.0,86,0.00,,,0.00,Wunderground v.1.15,2013-01-17 10:09:00,
2013-01-17 21:14:00,74.3,69.8,29.72,NNW,337,3.0,7.0,86,0.00,,,0.00,Wunderground v.1.15,2013-01-17 10:14:00,
2013-01-17 21:19:00,74.3,69.8,29.72,North,6,2.0,7.0,86,0.00,,,0.00,Wunderground v.1.15,2013-01-17 10:19:00,
2013-01-17 21:24:00,74.3,70.2,29.71,NE,36,1.0,4.0,87,0.00,,,0.00,Wunderground v.1.15,2013-01-17 10:24:00,
2013-01-17 21:29:00,74.2,70.1,29.71,North,3,1.0,6.0,87,0.00,,,0.00,Wunderground v.1.15,2013-01-17 10:29:00,
2013-01-17 21:34:00,74.2,70.1,29.71,NNW,329,4.0,5.0,87,0.00,,,0.00,Wunderground v.1.15,2013-01-17 10:34:00,
2013-01-17 21:39:00,74.2,70.1,29.71,NE,40,2.0,7.0,87,0.00,,,0.00,Wunderground v.1.15,2013-01-17 10:39:00,
2013-01-17 21:44:00,74.1,70.0,29.72,NE,44,2.0,5.0,87,0.00,,,0.00,Wunderground v.1.15,2013-01-17 10:44:00,
2013-01-17 21:49:00,74.1,70.0,29.72,East,90,2.0,6.0,87,0.00,,,0.00,Wunderground v.1.15,2013-01-17 10:49:00,
2013-01-17 21:54:00,74.0,70.2,29.71,NNE,16,2.0,4.0,88,0.00,,,0.00,Wunderground v.1.15,2013-01-17 10:54:00,
2013-01-17 21:59:00,74.0,70.2,29.72,ENE,69,3.0,4.0,88,0.00,,,0.00,Wunderground v.1.15,2013-01-17 10:59:00,
2013-01-17 22:04:00,74.0,70.2,29.72,NNE,17,2.0,5.0,88,0.00,,,0.00,Wunderground v.1.15,2013-01-17 11:04:00,
2013-01-17 22:09:00,73.9,70.1,29.72,NNE,17,1.0,5.0,88,0.00,,,0.00,Wunderground v.1.15,2013-01-17 11:09:00,
2013-01-17 22:14:00,73.9,70.1,29.72,NE,40,1.0,4.0,88,0.00,,,0.00,Wunderground v.1.15,2013-01-17 11:14:00,
2013-01-17 22:19:00,73.9,70.1,29.72,NNE,30,2.0,4.0,88,0.00,,,0.00,Wunderground v.1.15,2013-01-17 11:19:00,
2013-01-17 22:24:00,73.9,70.1,29.72,North,8,3.0,4.0,88,0.00,,,0.00,Wunderground v.1.15,2013-01-17 11:24:00,
2013-01-17 22:25:00,73.9,70.1,29.72,NE,45,2.0,5.0,88,0.00,,,-99.99,WeatherLink 6.0.2,2013-01-17 11:25:00,
2013-01-17 22:29:00,73.9,70.1,29.72,NE,34,1.0,4.0,88,0.00,,,0.00,Wunderground v.1.15,2013-01-17 11:29:00,
2013-01-17 22:30:00,73.9,70.1,29.72,NNE,22,1.0,3.0,88,0.00,,,-99.99,WeatherLink 6.0.2,2013-01-17 11:30:00,
2013-01-17 22:34:00,73.9,70.1,29.72,ENE,58,2.0,4.0,88,0.00,,,0.00,Wunderground v.1.15,2013-01-17 11:34:00,
2013-01-17 22:39:00,73.9,70.1,29.72,ENE,73,2.0,4.0,88,0.00,,,0.00,Wunderground v.1.15,2013-01-17 11:39:00,
2013-01-17 22:44:00,73.9,70.1,29.71,East,85,2.0,4.0,88,0.00,,,0.00,Wunderground v.1.15,2013-01-17 11:44:00,
2013-01-17 22:49:00,73.8,70.0,29.71,NE,52,1.0,4.0,88,0.00,,,0.00,Wunderground v.1.15,2013-01-17 11:49:00,
2013-01-17 22:54:00,73.9,70.1,29.71,NNE,26,2.0,8.0,88,0.00,,,0.00,Wunderground v.1.15,2013-01-17 11:54:00,
2013-01-17 23:00:00,73.8,70.0,29.71,NE,47,2.0,2.0,88,0.00,,,0.00,Wunderground v.1.15,2013-01-17 12:00:00,
2013-01-17 23:05:00,73.8,70.0,29.71,North,8,1.0,4.0,88,0.00,,,0.00,Wunderground v.1.15,2013-01-17 12:05:00,
2013-01-17 23:10:00,73.8,70.0,29.71,NNE,27,1.0,2.0,88,0.00,,,0.00,Wunderground v.1.15,2013-01-17 12:10:00,
2013-01-17 23:15:00,73.8,70.0,29.71,North,353,1.0,6.0,88,0.00,,,0.00,Wunderground v.1.15,2013-01-17 12:15:00,
2013-01-17 23:20:00,73.8,70.0,29.71,ENE,70,2.0,2.0,88,0.00,,,0.00,Wunderground v.1.15,2013-01-17 12:20:00,
2013-01-17 23:25:00,73.7,69.9,29.71,NNE,22,1.0,4.0,88,0.00,,,0.00,Wunderground v.1.15,2013-01-17 12:25:00,
2013-01-17 23:30:00,73.7,69.9,29.70,NE,44,1.0,1.0,88,0.00,,,0.00,Wunderground v.1.15,2013-01-17 12:30:00,
2013-01-17 23:35:00,73.7,69.9,29.70,NE,40,1.0,2.0,88,0.00,,,0.00,Wunderground v.1.15,2013-01-17 12:35:00,
2013-01-17 23:40:00,73.7,69.9,29.70,NNE,19,1.0,1.0,88,0.00,,,0.00,Wunderground v.1.15,2013-01-17 12:40:00,
2013-01-17 23:45:00,73.7,69.9,29.70,NE,39,2.0,5.0,88,0.00,,,0.00,Wunderground v.1.15,2013-01-17 12:45:00,
2013-01-17 23:50:00,73.8,69.7,29.70,NE,35,1.0,2.0,87,0.00,,,0.00,Wunderground v.1.15,2013-01-17 12:50:00,
2013-01-17 23:55:00,73.9,69.8,29.70,NNE,26,2.0,4.0,87,0.00,,,0.00,Wunderground v.1.15,2013-01-17 12:55:00,